Weather Roundup
Issued by NWS Springfield, MO

Home | Current Version | Previous Version | Text Only | Print | Product List | Glossary On
Versions: 1 2 3 4 5 6 7 8 9 10 11 12 13 14 15 16 17 18 19 20 21 22 23 24 25 26 27 28 29 30 31 32 33 34 35 36 37 38 39 40 41 42 43 44 45 46 47 48 49 50
000
NZUS99 KSGF 280707
HRRSGF

HOURLY WEATHER
NATIONAL WEATHER SERVICE SPRINGFIELD MO
200 AM CDT WED JUN 28 2017

......SGF CWA......

CITY           SKY/WX    TMP DP  RH WIND       PRES   REMARKS
SPRINGFIELD    CLEAR     69  64  84 S15       29.98F
JOPLIN         CLEAR     73  64  73 S13       29.94F
WEST PLAINS    CLEAR     65  62  90 S3        30.07S
ROLLA          CLEAR     66  63  90 S12       30.00F
OSAGE BEACH    CLEAR     68  63  84 S9        29.97F
BRANSON        CLEAR     64  63  94 SE7       30.03F

......SURROUNDING SGF CWA......

CITY           SKY/WX    TMP DP  RH WIND       PRES   REMARKS
CHANUTE          N/A    N/A N/A N/A MISG      29.91R
PARSONS        PTCLDY    74  65  73 S9G17     29.93S
COFFEYVILLE    CLEAR     73  65  75 S9        29.92S
EMPORIA        CLOUDY    73  65  75 S18G25    29.87S
GROVE OK       CLEAR     72  63  73 S8        29.96F
ROGERS AR      CLEAR     69  62  78 SE8       30.01F
SILOAM SPRINGS CLEAR     70  61  73 S6        29.99F
HARRISON AR    CLEAR     65  62  90 S3        30.04F
NEAR YELLVILLE CLEAR     66  59  77 CALM      30.01S

......KANSAS AND MISSOURI......

CITY           SKY/WX    TMP DP  RH WIND       PRES   REMARKS
KANSAS CTY INT MOCLDY    73  64  73 S18G26    29.86F
DOWNTOWN KC    CLOUDY    75  65  70 S16G24    29.87S
COLUMBIA       CLEAR     69  64  84 S12       29.96F
SEDALIA        CLOUDY    72  66  81 S13       29.94F
ST JOSEPH      MOCLDY    74  66  76 S13       29.83F
ST LOUIS       CLEAR     71  55  56 S8        30.04S
SPIRIT OF STL  CLEAR     68  59  73 SE5       30.02S
KIRKSVILLE     CLOUDY    68  61  78 S10       29.92F
WICHITA        PTCLDY    77  67  71 S20       29.83F
TOPEKA         CLOUDY    76  66  71 S12       29.83F
OLATHE         CLEAR     72  65  78 S14       29.89R

......TENNESSEE......

CITY           SKY/WX    TMP DP  RH WIND       PRES   REMARKS
MEMPHIS        PTCLDY    74  64  71 SE8       30.04F
NASHVILLE      CLEAR     63  59  87 SE3       30.11S

......ARKANSAS.......

CITY           SKY/WX    TMP DP  RH WIND       PRES   REMARKS
FAYETTEVILLE   CLEAR     68  61  78 CALM      30.00F
FT SMITH       PTCLDY    71  65  81 NE3       29.99F
LITTLE ROCK    PTCLDY    70  67  90 CALM      30.02S

......OKLAHOMA.......

CITY           SKY/WX    TMP DP  RH WIND       PRES   REMARKS
TULSA          MOCLDY    77  68  73 S16G23    29.91F
PONCA CITY     PTCLDY    78  65  63 S12G22    29.88R
MCALESTER      MOCLDY    75  65  70 SE6       29.97F
OKLAHOMA CITY  PTCLDY    73  67  81 S14G25    29.91F

......IOWA............

CITY           SKY/WX    TMP DP  RH WIND       PRES   REMARKS
DES MOINES     CLOUDY    72  62  71 S18G25    29.79F
QUAD CITIES    CLEAR     62  51  67 SE9       29.92F

......ILLINOIS........

CITY           SKY/WX    TMP DP  RH WIND       PRES   REMARKS
QUINCY         MOCLDY    68  55  63 S12       29.94F
CHICAGO        PTCLDY    58  47  66 S8        30.03F




USA.gov is the U.S. government's official web portal to all federal, state and local government web resources and services.